CZ-4B R/B, 25732

Orbit data source: Space-Track

CZ-4B R/B, 25732 is space debris in SSO originally from a launch on Mon, 10 May 1999 UTC launched from the Taiyaun Space Center, China (TSC). Debris objects in space refer to the collection of defunct objects orbiting the Earth. Examples of debris include non-operational satellites, rocket bodies, and fragments generated from explosions, collisions, or faulty payload assembly.

Loading next visibility...
Identifier
25732, 1999-025C
Orbit
SSO
Country
Flag of CNCN / PRC
Related business
Manufacturer
SAST
Mission
Spacecraft
Bus & Motor
CZ-4 STAGE 3, Unknown motor
Mass
~1,000 kg wet, ~1,000 kg dry
Launch date (UTC)
1999-05-10 (27 years ago)
Launch vehicle
Unknown
Launch site
Taiyaun Space Center, China (TSC)
Object type
Payload
Rocket body
Debris
Shape & HBR
Cyl, 2.5 m
Radar Cross Section
14.536 m², Large (>1 m²)

Expand to show TLE details & history
Last TLE update: 6 hours ago

TLE from 6 hours ago
0 CZ-4B R/B
1 25732U 99025C   26238.12072045  .00000020  00000-0  30263-4 0  9996
2 25732  98.6439 278.1832 0036454 215.9443 203.9146 14.18292918412187
Epoch: 2026-08-26T02:53Z
TLE epoch observation values (Epoch: 2026-08-26T02:53:50.246Z)
Latitude
58.6923°
Longitude
-114.05129°
Altitude
865.069 km
Speed
7.413 km/s
True Right ascension
17h 35m 08s
True Declination
58° 32' 30"
Sunlit
Object was in daylight at epoch
Visualization orbit readout
Latitude
Unknown
Longitude
Unknown
Altitude
Unknown
Speed
Unknown
Apparent Right ascension
Unknown
Apparent Declination
Unknown
Sunlit
N/A
Visualization observer readout
Local Sidereal Time
00:36:05
Azimuth
Unknown
Elevation
Unknown
Doppler factor
Unknown
Orbital elements
Apogee altitude
854.56 km
Perigee altitude
802.019 km
Semi-major axis
7,206.426 km
Eccentricity
0.00365
Inclination
98.6439°
RAAN
278.1832°
Arg. of periapsis
215.9443°
True anomaly
203.74596°
Mean anomaly
203.9146°
Eccentric anomaly
203.83021°
Mean motion
3.54783 °/min
Orbital period
101.47 mins
BSTAR
0.000030263
Loading maneuver chart data...
Computing Atmospheric mass density...
Loading historical data...
Loading historical data...
Loading historical data...
Loading historical data...
Loading historical data...
Loading historical data...
Loading historical data...

Documentation

Showing up to 5 results
|